Observations for Trim Market St
| Time | AQI | Temp °C | Hum % | Pres Pa | CO μg/m³ | H₂S μg/m³ | NO μg/m³ | NO₂ μg/m³ | O₃ μg/m³ | SO₂ μg/m³ | PM1 μg/m³ | PM2.5 μg/m³ | PM10 μg/m³ |
|---|---|---|---|---|---|---|---|---|---|---|---|---|---|
| Tuesday 18 August 2026 | |||||||||||||
| 11:44 | 2 | 23.6 | 53 | 57,223 | 0 | 0 | 2.59 | 7.43 | 55.33 | 0 | 0 | 1.8 | 1.98 |
| 11:43 | 2 | 23.6 | 53 | 56,912 | 0 | 0 | 3.67 | 9.45 | 58.15 | 0 | 0 | 1.8 | 1.98 |
| 11:42 | 2 | 23.6 | 54 | 56,666 | 0 | 0 | 3.74 | 7.84 | 53.55 | 0 | 0 | 1.79 | 1.97 |
| 11:41 | 2 | 23.6 | 54 | 56,215 | 0 | 0 | 3.78 | 11.72 | 58.46 | 0 | 0 | 1.79 | 1.97 |
| 11:40 | 2 | 23.6 | 54 | 55,924 | 0 | 0 | 3.79 | 12.65 | 49.9 | 0 | 0 | 1.79 | 1.96 |
| 11:39 | 2 | 23.6 | 54 | 55,862 | 0 | 0 | 3.74 | 24.94 | 37.34 | 0 | 0 | 1.79 | 1.96 |
| 11:38 | 2 | 23.6 | 54 | 55,664 | 0 | 0 | 2.65 | 10.63 | 61.17 | 0 | 0 | 1.78 | 1.96 |
| 11:37 | 2 | 23.6 | 54 | 55,705 | 0 | 0 | 2.47 | 9.36 | 57.13 | 0 | 0 | 1.78 | 2.47 |
| 11:36 | 2 | 23.6 | 54 | 55,583 | 0 | 0 | 2.46 | 12.13 | 59.11 | 0 | 0.71 | 2.28 | 2.47 |
| 11:35 | 2 | 23.6 | 54 | 55,612 | 0.06 | 0 | 2.36 | 8.46 | 51.5 | 0 | 0 | 1.77 | 1.95 |
| 11:34 | 2 | 23.6 | 54 | 55,657 | 0 | 0 | 2.24 | 10.15 | 59.78 | 0 | 0 | 1.77 | 1.95 |
| 11:33 | 2 | 23.6 | 54 | 55,687 | 0 | 0 | 2.73 | 12.29 | 59.65 | 0 | 0 | 1.77 | 1.95 |
| 11:32 | 2 | 23.6 | 54 | 55,624 | 0 | 0 | 2.81 | 12.64 | 64.44 | 0 | 0 | 1.77 | 1.95 |
| 11:28 | 2 | 23.7 | 54 | 55,629 | 0 | 0 | 3.3 | 12.36 | 58.06 | 0 | 0 | 2.28 | 2.48 |
| 11:27 | 2 | 23.7 | 54 | 55,650 | 0 | 0 | 3.4 | 12.4 | 58 | 0 | 0 | 1.76 | 2.48 |
| 11:26 | 2 | 23.7 | 54 | 55,697 | 0 | 0 | 3.76 | 13.03 | 52.27 | 0 | 0 | 2.27 | 2.49 |
| 11:25 | 2 | 23.6 | 54 | 55,764 | 0 | 0 | 3.9 | 12.78 | 49.58 | 0 | 0.71 | 3.28 | 3.93 |
| 11:24 | 2 | 23.6 | 55 | 55,849 | 0.03 | 0 | 3.89 | 12.59 | 44.16 | 0 | 0 | 2.25 | 3.22 |
| 11:22 | 2 | 23.6 | 55 | 56,040 | 0.01 | 0 | 3.62 | 13.16 | 52.67 | 0 | 0 | 2.25 | 2.51 |
| 11:21 | 2 | 23.5 | 55 | 56,130 | 0 | 0 | 3.32 | 11.67 | 56.06 | 0 | 0 | 1.74 | 1.8 |